This demonstration page uses our WeatherBlox Daily Observations layout. Learn more.

36.17497, -115.13722

Hourly Observations for July 14, 2015

Temp ( °F °C ) Dew Point ( °F °C ) Humidity (%) Winds ( mph kmh ) Pressure ( in mb ) Visibility ( mi km ) Precip ( " mm )
12:53 am 00:53 Clear 88 31 27 -3 11 11 Calm 29.62 1003 10 16.09344 0 0
1:53 am 01:53 Clear 82 28 28 -2 14 14 N 3 6 29.65 1004 10 16.09344 0 0
2:53 am 02:53 Clear 82 28 28 -2 14 14 NNW 3 6 29.65 1004 10 16.09344 0 0
3:53 am 03:53 Clear 79 26 34 1 20 20 N 3 6 29.68 1005 10 16.09344 0 0
4:53 am 04:53 Clear 77 25 34 1 21 21 NW 6 9 29.68 1005 10 16.09344 0 0
5:53 am 05:53 Sunny 75 24 30 -1 19 19 NW 3 6 29.71 1006 10 16.09344 0 0
6:53 am 06:53 Sunny 79 26 34 1 20 20 Calm 29.74 1007 10 16.09344 0 0
7:53 am 07:53 Sunny 82 28 36 2 19 19 E 3 6 29.71 1006 10 16.09344 0 0
8:53 am 08:53 Sunny 88 31 37 3 17 17 Calm 29.71 1006 10 16.09344 0 0
9:53 am 09:53 Sunny 93 34 39 4 15 15 S 13 20 29.68 1005 10 16.09344 0 0
10:53 am 10:53 Sunny 97 36 39 4 13 13 S 23 37 29.62 1003 10 16.09344 0 0
11:53 am 11:53 Sunny 99 37 39 4 13 13 ESE 15 24 29.62 1003 10 16.09344 0 0
12:53 pm 12:53 Sunny 99 37 39 4 13 13 SSE 9 15 29.59 1002 10 16.09344 0 0
1:53 pm 13:53 Sunny 102 39 36 2 10 10 SSW 22 35 29.53 1000 10 16.09344 0 0
2:53 pm 14:53 Sunny 102 39 36 2 10 10 S 14 22 29.5 999 10 16.09344 0 0
3:53 pm 15:53 Sunny 102 39 36 2 10 10 SW 18 30 29.47 998 10 16.09344 0 0
4:53 pm 16:53 Sunny 102 39 34 1 9 9 WSW 14 22 29.47 998 10 16.09344 0 0
5:53 pm 17:53 Sunny 100 38 28 -2 8 8 SSW 16 26 29.47 998 10 16.09344 0 0
6:53 pm 18:53 Sunny 99 37 27 -3 8 8 WSW 13 20 29.5 999 10 16.09344 0 0
7:53 pm 19:53 Sunny 97 36 28 -2 9 9 WSW 10 17 29.5 999 10 16.09344 0 0
8:53 pm 20:53 Clear 95 35 28 -2 9 9 W 7 11 29.53 1000 10 16.09344 0 0
9:53 pm 21:53 Clear 93 34 30 -1 11 11 SW 3 6 29.53 1000 10 16.09344 0 0
10:53 pm 22:53 Clear 90 32 34 1 14 14 SW 6 9 29.56 1001 10 16.09344 0 0
11:53 pm 23:53 Clear 88 31 34 1 15 15 WSW 6 9 29.59 1002 10 16.09344 0 0

Powered by AerisWeather